EW9034 Weather Reports


Display with metric or nautical units.
time (UTC)temp
F
wind
direction
speed
MPH
gust
MPH
rain 1hr
in
rain 24hr
in
rain mn
in
humidity
%
barometer
mb
20260503041536 45 290 2.0 7.0 0.00 0.00 0.00 64 1012.6
20260503040037 45 308 3.0 4.0 0.00 0.00 0.00 64 1012.6
20260503034540 45 309 3.0 6.0 0.00 0.00 0.00 59 1012.8
20260503033033 48 314 3.0 6.0 0.00 0.00 0.00 56 1012.7
20260503031533 50 317 4.0 5.0 0.00 0.00 0.00 53 1012.4
20260503030036 54 317 0.0 0.0 0.00 0.00 0.00 54 1012.3
20260503024536 58 317 0.0 0.0 0.00 0.00 0.00 48 1012.4
20260503023030 60 316 0.0 0.0 0.00 0.00 0.00 44 1012.3
20260503021530 63 316 2.0 4.0 0.00 0.00 0.00 40 1012.4
20260503020029 66 316 2.0 4.0 0.00 0.00 0.00 38 1012.5
20260503014527 67 316 2.0 4.0 0.00 0.00 0.00 38 1012.6
20260503013036 67 317 2.0 6.0 0.00 0.00 0.00 38 1012.6
20260503011523 66 305 0.0 3.0 0.00 0.00 0.00 38 1012.8
20260503010023 63 304 1.0 5.0 0.00 0.00 0.00 44 1013.0
20260503004526 65 298 5.0 11.0 0.00 0.00 0.00 38 1013.1
20260503003019 67 328 4.0 10.0 0.00 0.00 0.00 35 1013.2
20260503001518 65 309 5.0 9.0 0.00 0.00 0.00 38 1013.4
20260503000022 67 290 5.0 11.0 0.00 0.00 0.00 35 1013.4
20260502234521 68 288 7.0 12.0 0.00 0.00 0.00 33 1013.5
20260502233027 67 271 5.0 13.0 0.00 0.00 0.00 35 1013.6
20260502231513 66 298 5.0 12.0 0.00 0.00 0.00 35 1013.7
20260502230013 67 276 8.0 20.0 0.00 0.00 0.00 35 1014.0
20260502224510 66 290 7.0 11.0 0.00 0.00 0.00 35 1014.1
20260502223009 66 281 6.0 15.0 0.00 0.00 0.00 36 1014.4
20260502221514 65 268 1.0 13.0 0.00 0.00 0.00 35 1014.7
20260502220007 64 259 6.0 17.0 0.00 0.00 0.00 36 1015.0
20260502214506 64 256 5.0 11.0 0.00 0.00 0.00 38 1015.1
20260502213006 64 244 8.0 16.0 0.00 0.00 0.00 38 1015.4
20260502211505 63 287 4.0 11.0 0.00 0.00 0.00 40 1015.5
20260502210007 62 289 6.0 11.0 0.00 0.00 0.00 42 1015.7
20260502204503 63 291 4.0 10.0 0.00 0.00 0.00 39 1015.8
20260502203003 62 299 3.0 11.0 0.00 0.00 0.00 38 1016.0
20260502201502 63 302 6.0 11.0 0.00 0.00 0.00 36 1016.2
20260502200002 62 307 1.0 6.0 0.00 0.00 0.00 37 1016.3
20260502194502 62 312 6.0 13.0 0.00 0.00 0.00 40 1016.4
20260502193102 63 323 8.0 15.0 0.00 0.00 0.00 42 1016.5
20260502191607 62 331 4.0 14.0 0.00 0.00 0.00 42 1016.7
20260502190059 63 337 6.0 13.0 0.00 0.00 0.00 41 1016.7
20260502184602 63 334 10.0 19.0 0.00 0.00 0.00 40 1016.8
20260502183057 64 355 7.0 16.0 0.00 0.00 0.00 40 1016.7
20260502181556 65 341 7.0 15.0 0.00 0.00 0.00 41 1016.9
20260502163051 60 307 6.0 11.0 0.00 0.00 0.00 51 1017.1
20260502161544 61 320 4.0 11.0 0.00 0.00 0.00 55 1017.1
20260502151551 59 10 0.0 5.0 0.00 0.00 0.00 57 1016.9
20260502123105 47 45 1.0 9.0 0.00 0.00 0.00 82 1016.6
20260502121558 45 52 0.0 3.0 0.00 0.00 0.00 79 1016.5
20260502114557 42 53 2.0 5.0 0.00 0.00 0.00 75 1016.3
20260502113053 44 53 2.0 6.0 0.00 0.00 0.00 75 1016.0
20260502111553 43 53 1.0 4.0 0.00 0.00 0.00 74 1016.1
20260502110049 43 53 1.0 4.0 0.00 0.00 0.00 75 1016.1
20260502104544 44 53 0.0 0.0 0.00 0.00 0.00 75 1016.0
20260502103041 45 53 0.0 0.0 0.00 0.00 0.00 71 1015.7
20260502101551 45 53 0.0 0.0 0.00 0.00 0.00 70 1015.7
20260502100103 45 53 0.0 3.0 0.00 0.00 0.00 69 1015.6
20260502071522 46 63 4.0 6.0 0.00 0.00 0.00 65 1014.6
20260502070019 46 63 3.0 5.0 0.00 0.00 0.00 63 1014.2
20260502054511 50 54 4.0 9.0 0.00 0.00 0.00 55 1013.4
20260502053011 52 54 5.0 10.0 0.00 0.00 0.00 52 1013.2
20260502051521 49 64 4.0 8.0 0.00 0.00 0.00 57 1012.8
20260502050011 48 67 4.0 6.0 0.00 0.00 0.00 60 1012.3
20260502044508 48 67 3.0 6.0 0.00 0.00 0.00 54 1012.0
20260502043008 49 67 3.0 5.0 0.00 0.00 0.00 53 1011.7